Volver al catálogo

STARLINK-35456

ActivoComunicacionesVLEO
NORAD 65867·PAYLOAD·🇺🇸 United States

Lanzado Oct 3, 2025 desde Vandenberg Space Force Base

Loading…

Próximos Pases (próximas 24 horas)

TLE

ActualizadoSource: CelesTrak SupGP

Época: Sep 14, 2026, 14:37 UTC

1 65867C 25223P   26257.60951389  .00052815  00000+0  15602-2 0  2572
2 65867  53.1573 134.9158 0001262  74.7318 323.3766 15.34368709    17

Sigue STARLINK-35456 en tiempo real con AllMySat

Download on the App Store